Weather History for Perry, FL

Change the Weather History Date:

Friday, June 28, 2013

  Actual Average (KCTY) Record (KCTY)
Temperature  
Mean Temperature 76 °F 81 °F  
Max Temperature 82 °F 91 °F 98 °F (1998)
Min Temperature 69 °F 71 °F 62 °F (2012)
Degree Days  
Heating Degree Days 0 0  
Month to date heating degree days 0  
Since 1 June heating degree days 0  
Since 1 July heating degree days 1306  
Cooling Degree Days 10 16  
Month to date cooling degree days 416  
Year to date cooling degree days 895  
Since 1 June cooling degree days 416  
Growing Degree Days 26 (Base 50)    
Moisture  
Dew Point 71 °F    
Average Humidity 84    
Maximum Humidity 94    
Minimum Humidity 69    
Precipitation  
Precipitation 0.91 in 0.18 in 1.35 in (2001)
Month to date precipitation 4.72  
Year to date precipitation 21.89  
Sea Level Pressure  
Sea Level Pressure 29.89 in    
Wind  
Wind Speed 6 mph (SW)    
Max Wind Speed 20 mph    
Max Gust Speed 29 mph    
Visibility 10 miles    
Events Rain , Thunderstorm    
T = Trace of Precipitation, MM = Missing Value Source: NWS Daily Summary

Daily Weather History Graph

Daily Weather History Graph

Search for Another Location

Airport:

Trip Planner

Search our weather history database for the weather conditions in past years. The results will help you decide how hot, cold, wet, or windy it might be!

Date:

Astronomy

Jun. 28, 2013 Rise Set
Actual Time 6:35 AM EDT 8:39 PM EDT
Civil Twilight 6:08 AM EDT 9:07 PM EDT
Nautical Twilight 5:34 AM EDT 9:40 PM EDT
Astronomical Twilight 4:59 AM EDT 10:15 PM EDT
Moon 12:00 AM EDT (6/28) 12:15 PM EDT (6/28)
Length of Visible Light 14h 58m
Length of Day
14h 03m
Waning Gibbous, 66% of the Moon is Illuminated
Jun 28
Waning Gibbous
Jun 30
Last Quarter
Jul 8
New
Jul 15
First Quarter
Jul 22
Full

Hourly Weather History & Observations

Time (EDT) Temp. Heat Index Dew Point Humidity Pressure Visibility Wind Dir Wind Speed Gust Speed Precip Events Conditions
12:15 AM 78.8 °F - 71.6 °F 78% 29.96 in 10.0 mi WSW 5.8 mph - N/A   Clear
12:35 AM 78.8 °F - 71.6 °F 78% 29.95 in 10.0 mi SW 5.8 mph - N/A   Clear
12:53 AM 80.1 °F 84.2 °F 73.0 °F 79% 29.94 in - WSW 5.8 mph - 0.01 in   Unknown
12:55 AM 78.8 °F - 71.6 °F 78% 29.95 in 10.0 mi WSW 4.6 mph - N/A   Clear
1:15 AM 78.8 °F - 71.6 °F 78% 29.95 in 10.0 mi WSW 4.6 mph - N/A   Clear
1:35 AM 77.0 °F - 71.6 °F 83% 29.95 in 10.0 mi SW 3.5 mph - N/A   Clear
1:53 AM 79.0 °F - 72.0 °F 79% 29.93 in - SSW 4.6 mph - N/A   Unknown
1:55 AM 77.0 °F - 71.6 °F 83% 29.94 in 10.0 mi SW 4.6 mph - N/A   Clear
2:15 AM 78.8 °F - 71.6 °F 78% 29.93 in 10.0 mi SSW 3.5 mph - N/A   Clear
2:35 AM 78.8 °F - 71.6 °F 78% 29.93 in 10.0 mi SW 3.5 mph - N/A   Clear
2:53 AM 79.0 °F - 73.0 °F 82% 29.92 in - WSW 3.5 mph - N/A   Unknown
2:55 AM 77.0 °F - 71.6 °F 83% 29.94 in 10.0 mi Calm Calm - N/A   Scattered Clouds
3:15 AM 77.0 °F - 71.6 °F 83% 29.92 in 10.0 mi SSW 4.6 mph - N/A   Scattered Clouds
3:35 AM 77.0 °F - 73.4 °F 89% 29.92 in 10.0 mi WSW 4.6 mph - N/A   Scattered Clouds
3:53 AM 79.0 °F - 73.9 °F 84% 29.91 in - SW 3.5 mph - N/A   Unknown
3:55 AM 77.0 °F - 73.4 °F 89% 29.92 in 10.0 mi WSW 3.5 mph - N/A   Clear
4:15 AM 78.8 °F - 73.4 °F 83% 29.92 in 10.0 mi SW 3.5 mph - N/A   Mostly Cloudy
4:35 AM 78.8 °F - 73.4 °F 83% 29.91 in 10.0 mi WSW 4.6 mph - N/A   Mostly Cloudy
4:53 AM 80.1 °F 84.5 °F 73.9 °F 81% 29.90 in - SW 4.6 mph - N/A   Unknown
4:55 AM 78.8 °F - 73.4 °F 83% 29.91 in 10.0 mi SW 4.6 mph - N/A   Scattered Clouds
5:15 AM 78.8 °F - 73.4 °F 83% 29.92 in 10.0 mi West 3.5 mph - N/A   Scattered Clouds
5:35 AM 78.8 °F - 73.4 °F 83% 29.92 in 10.0 mi West 10.4 mph - N/A   Mostly Cloudy
5:53 AM 79.0 °F - 70.0 °F 74% 29.90 in - WSW 10.4 mph - N/A   Unknown
5:55 AM 77.0 °F - 69.8 °F 78% 29.91 in 10.0 mi WSW 9.2 mph - N/A Thunderstorm Thunderstorm
6:15 AM 73.4 °F - 68.0 °F 83% 29.91 in 10.0 mi SW 4.6 mph - N/A   Clear
6:35 AM 73.4 °F - 68.0 °F 83% 29.92 in 10.0 mi Calm Calm - N/A   Clear
6:53 AM 73.9 °F - 68.0 °F 82% 29.90 in - Calm Calm - 0.02 in   Unknown
6:55 AM 73.4 °F - 68.0 °F 83% 29.92 in 10.0 mi Calm Calm - N/A   Clear
7:15 AM 73.4 °F - 69.8 °F 88% 29.91 in 10.0 mi Calm Calm - N/A   Clear
7:35 AM 77.0 °F - 71.6 °F 83% 29.91 in 10.0 mi Calm Calm - N/A   Clear
7:53 AM 80.1 °F 84.5 °F 73.9 °F 81% 29.90 in - Calm Calm - N/A   Unknown
7:55 AM 77.0 °F - 73.4 °F 89% 29.91 in 10.0 mi Calm Calm - N/A   Scattered Clouds
8:53 AM 80.1 °F 83.2 °F 70.0 °F 71% 29.91 in - SSW 12.7 mph 20.7 mph N/A   Unknown
8:55 AM 78.8 °F - 69.8 °F 74% 29.92 in 10.0 mi SSW 12.7 mph 18.4 mph N/A Thunderstorm Thunderstorm
9:15 AM 77.0 °F - 68.0 °F 74% 29.92 in 10.0 mi SSW 8.1 mph - N/A Thunderstorm Thunderstorm
9:35 AM 78.8 °F - 68.0 °F 69% 29.94 in 10.0 mi SW 18.4 mph 24.2 mph N/A Thunderstorm Thunderstorm
9:53 AM 75.9 °F - 66.9 °F 74% 29.90 in - SSW 16.1 mph 27.6 mph N/A   Unknown
9:55 AM 73.4 °F - 66.2 °F 78% 29.92 in 10.0 mi SSW 13.8 mph 23.0 mph N/A Rain , Thunderstorm Light Thunderstorms and Rain
10:15 AM 71.6 °F - 64.4 °F 78% 29.94 in 3.0 mi WSW 13.8 mph 18.4 mph 0.13 in Rain , Thunderstorm Heavy Thunderstorms and Rain
10:35 AM 69.8 °F - 68.0 °F 94% 29.95 in 1.5 mi SW 19.6 mph 28.8 mph 0.58 in Rain , Thunderstorm Heavy Thunderstorms and Rain
10:53 AM 73.0 °F - 66.0 °F 79% 29.92 in - SW 12.7 mph 24.2 mph 0.71 in   Unknown
10:55 AM 69.8 °F - 66.2 °F 88% 29.93 in 10.0 mi SW 12.7 mph 20.7 mph 0.61 in Rain , Thunderstorm Light Thunderstorms and Rain
11:15 AM 69.8 °F - 66.2 °F 88% 29.93 in 10.0 mi West 15.0 mph 23.0 mph N/A Rain , Thunderstorm Light Thunderstorms and Rain
11:35 AM 71.6 °F - 68.0 °F 88% 29.94 in 10.0 mi West 6.9 mph - N/A Rain , Thunderstorm Thunderstorms and Rain
11:53 AM 73.0 °F - 68.0 °F 84% 29.92 in - WSW 10.4 mph 19.6 mph N/A   Unknown
11:55 AM 71.6 °F - 68.0 °F 88% 29.94 in 10.0 mi West 10.4 mph - N/A Thunderstorm Unknown
12:15 PM 71.6 °F - 68.0 °F 88% 29.94 in 10.0 mi West 6.9 mph 11.5 mph N/A Thunderstorm Unknown
12:35 PM 71.6 °F - 68.0 °F 88% 29.94 in 10.0 mi West 11.5 mph - N/A Rain , Thunderstorm Light Thunderstorms and Rain
12:53 PM 75.0 °F - 70.0 °F 84% 29.92 in - WSW 11.5 mph 21.9 mph 0.01 in   Unknown
12:55 PM 73.4 °F - 69.8 °F 88% 29.94 in 10.0 mi WSW 12.7 mph - 0.02 in Rain Rain
1:15 PM 73.4 °F - 69.8 °F 88% 29.92 in 10.0 mi WSW 13.8 mph - N/A Thunderstorm Unknown
1:35 PM 71.6 °F - 69.8 °F 94% 29.91 in 7.0 mi WSW 6.9 mph - N/A Thunderstorm Unknown
1:53 PM 75.0 °F - 70.0 °F 84% 29.91 in - SW 5.8 mph - 0.01 in   Unknown
1:55 PM 73.4 °F - 69.8 °F 88% 29.92 in 10.0 mi SW 5.8 mph - N/A   Light Drizzle
2:15 PM 73.4 °F - 69.8 °F 88% 29.91 in 10.0 mi Calm Calm - N/A Thunderstorm Unknown
2:35 PM 73.4 °F - 69.8 °F 88% 29.89 in 10.0 mi Calm Calm - N/A Rain Light Rain
2:53 PM 77.0 °F - 72.0 °F 84% 29.86 in - NW 4.6 mph - N/A   Unknown
2:55 PM 73.4 °F - 71.6 °F 94% 29.87 in 10.0 mi NNW 4.6 mph - N/A Rain Light Rain
3:15 PM 73.4 °F - 71.6 °F 94% 29.84 in 10.0 mi North 6.9 mph - N/A Rain Rain
3:35 PM 75.2 °F - 71.6 °F 89% 29.86 in 10.0 mi SSE 9.2 mph - 0.01 in Rain Light Rain
3:53 PM 78.1 °F - 73.0 °F 84% 29.85 in - SSE 9.2 mph - 0.01 in   Unknown
3:55 PM 75.2 °F - 71.6 °F 89% 29.87 in 10.0 mi SSE 8.1 mph - 0.01 in   Clear
4:15 PM 77.0 °F - 73.4 °F 89% 29.86 in 10.0 mi SSE 6.9 mph - N/A   Clear
4:35 PM 78.8 °F - 73.4 °F 83% 29.85 in 10.0 mi SSE 5.8 mph - N/A   Scattered Clouds
4:53 PM 81.0 °F 86.2 °F 73.9 °F 79% 29.82 in - SSE 4.6 mph - N/A   Unknown
4:55 PM 78.8 °F - 73.4 °F 83% 29.84 in 10.0 mi SSE 4.6 mph - N/A   Clear
5:15 PM 80.6 °F 85.4 °F 73.4 °F 79% 29.84 in 10.0 mi SSW 5.8 mph - N/A   Clear
5:35 PM 80.6 °F 85.4 °F 73.4 °F 79% 29.83 in 10.0 mi SSW 6.9 mph - N/A   Clear
5:53 PM 82.9 °F 89.4 °F 73.9 °F 74% 29.81 in - South 5.8 mph - N/A   Unknown
5:55 PM 80.6 °F 85.4 °F 73.4 °F 79% 29.82 in 10.0 mi SSW 5.8 mph - N/A   Clear
6:15 PM 80.6 °F 85.4 °F 73.4 °F 79% 29.82 in 10.0 mi SSW 5.8 mph - N/A   Clear
6:35 PM 80.6 °F 85.4 °F 73.4 °F 79% 29.82 in 10.0 mi SSW 6.9 mph - N/A   Clear
6:53 PM 82.9 °F 89.4 °F 73.9 °F 74% 29.82 in - SW 9.2 mph - N/A   Unknown
6:55 PM 80.6 °F 85.4 °F 73.4 °F 79% 29.84 in 10.0 mi WSW 6.9 mph - N/A   Clear
7:15 PM 80.6 °F 85.4 °F 73.4 °F 79% 29.85 in 10.0 mi WSW 6.9 mph - N/A   Clear
7:35 PM 80.6 °F 85.4 °F 73.4 °F 79% 29.85 in 10.0 mi SW 4.6 mph - N/A   Clear
7:53 PM 81.0 °F 86.2 °F 73.9 °F 79% 29.83 in - South 3.5 mph - N/A   Unknown
7:55 PM 78.8 °F - 73.4 °F 83% 29.85 in 10.0 mi South 3.5 mph - N/A   Clear
8:15 PM 78.8 °F - 73.4 °F 83% 29.84 in 10.0 mi South 3.5 mph - N/A Thunderstorm Clear
8:35 PM 78.8 °F - 73.4 °F 83% 29.85 in 10.0 mi SSW 3.5 mph - N/A Thunderstorm Thunderstorm
8:53 PM 80.1 °F 84.5 °F 73.9 °F 81% 29.88 in - NNW 16.1 mph 21.9 mph 0.02 in   Unknown
8:55 PM 78.8 °F - 73.4 °F 83% 29.89 in 10.0 mi NNW 17.3 mph 25.3 mph N/A Thunderstorm Thunderstorm
9:15 PM 71.6 °F - 69.8 °F 94% 29.89 in 5.0 mi NW 5.8 mph - 0.03 in Rain , Thunderstorm Thunderstorms and Rain
9:35 PM 71.6 °F - 69.8 °F 94% 29.86 in 5.0 mi ESE 3.5 mph - 0.07 in Rain , Thunderstorm Thunderstorms and Rain
9:53 PM 73.0 °F - 71.1 °F 93% 29.83 in - South 8.1 mph - 0.08 in   Unknown
9:55 PM 71.6 °F - 69.8 °F 94% 29.84 in 10.0 mi South 6.9 mph - 0.08 in Rain Light Rain
10:15 PM 71.6 °F - 69.8 °F 94% 29.84 in 10.0 mi SSE 4.6 mph - N/A Rain Light Rain
10:35 PM 71.6 °F - 69.8 °F 94% 29.82 in 10.0 mi Calm Calm - 0.01 in Rain Light Rain
10:53 PM 73.0 °F - 71.1 °F 93% 29.81 in - SE 3.5 mph - 0.02 in   Unknown
10:55 PM 71.6 °F - 69.8 °F 94% 29.82 in 10.0 mi SE 3.5 mph - 0.02 in Rain Light Rain
11:15 PM 71.6 °F - 69.8 °F 94% 29.82 in 10.0 mi SSE 3.5 mph - 0.01 in Rain Light Rain
11:35 PM 71.6 °F - 69.8 °F 94% 29.82 in 10.0 mi Calm Calm - 0.01 in   Clear
11:53 PM 73.9 °F - 71.1 °F 91% 29.82 in - Calm Calm - N/A   Unknown
11:55 PM 71.6 °F - 69.8 °F 94% 29.83 in 7.0 mi Calm Calm - 0.01 in   Clear